When you browse on this site, cookies collect data to enhance your experience and personalize the content and advertising you see.
Visit our Privacy Policy to learn more. By continuing to use the site, you agree to this use of cookies and data.
  • în România
  • Lista ţărilor
  • Pe 7 zile
  • Temperatura apei
  • Meteo pe hartă
  • Widget-uri
  • user-avatar
    Intrare

    Meteo pe oră la Prudnik

    Astăzi, 14 Decembrie, Sâmbătă

    Timp Temperatura Precipitaţii Vânt Presiune Umiditate
    00:00 -1°C° 0 mm 5 m/s 720 mmHg 83%
    01:00 0°C° 0 mm 5 m/s 720 mmHg 84%
    02:00 0°C° 0 mm 5 m/s 720 mmHg 84%
    03:00 0°C° 0 mm 5 m/s 720 mmHg 84%
    04:00 +1°C° 0 mm 5 m/s 720 mmHg 83%
    05:00 +1°C° 0 mm 5 m/s 720 mmHg 84%
    06:00 +1°C° 0 mm 4 m/s 721 mmHg 84%
    07:00 +1°C° 0 mm 4 m/s 721 mmHg 85%
    08:00 +1°C° 0 mm 4 m/s 721 mmHg 83%
    09:00 +3°C° 0 mm 4 m/s 722 mmHg 81%
    10:00 +2°C° 0 mm 5 m/s 722 mmHg 80%
    11:00 +2°C° 0.2 mm 6 m/s 722 mmHg 78%
    12:00 +2°C° 0.2 mm 7 m/s 721 mmHg 76%
    13:00 +2°C° 0.2 mm 8 m/s 721 mmHg 75%
    14:00 +1°C° 0.6 mm 8 m/s 722 mmHg 78%
    15:00 +1°C° 0.6 mm 8 m/s 722 mmHg 81%
    16:00 +1°C° 0.6 mm 8 m/s 722 mmHg 84%
    17:00 +2°C° 0 mm 7 m/s 723 mmHg 82%
    18:00 +2°C° 0 mm 7 m/s 724 mmHg 81%
    19:00 +2°C° 0 mm 6 m/s 726 mmHg 79%
    20:00 +1°C° 0 mm 6 m/s 727 mmHg 77%
    21:00 +1°C° 0 mm 5 m/s 728 mmHg 75%
    22:00 +1°C° 0 mm 5 m/s 729 mmHg 72%
    23:00 +1°C° 0 mm 5 m/s 729 mmHg 76%

    Mâine, 15 Decembrie, Duminică

    Timp Temperatura Precipitaţii Vânt Presiune Umiditate
    00:00 +1°C° 0 mm 5 m/s 729 mmHg 80%
    01:00 +1°C° 0 mm 5 m/s 730 mmHg 83%
    02:00 +1°C° 0 mm 5 m/s 730 mmHg 83%
    03:00 +1°C° 0 mm 5 m/s 730 mmHg 83%
    04:00 +2°C° 0 mm 5 m/s 731 mmHg 83%
    05:00 +1°C° 0 mm 4 m/s 731 mmHg 84%
    06:00 +1°C° 0 mm 4 m/s 731 mmHg 84%
    07:00 +1°C° 0 mm 4 m/s 731 mmHg 85%
    08:00 +3°C° 0.1 mm 4 m/s 731 mmHg 83%
    09:00 +3°C° 0.1 mm 5 m/s 731 mmHg 82%
    10:00 +5°C° 0.1 mm 5 m/s 731 mmHg 81%
    11:00 +4°C° 0.3 mm 6 m/s 731 mmHg 78%
    12:00 +5°C° 0.3 mm 7 m/s 731 mmHg 74%
    13:00 +6°C° 0.3 mm 7 m/s 731 mmHg 71%
    14:00 +5°C° 0 mm 7 m/s 732 mmHg 73%
    15:00 +5°C° 0 mm 6 m/s 732 mmHg 74%
    16:00 +5°C° 0 mm 5 m/s 732 mmHg 76%
    17:00 +5°C° 0 mm 5 m/s 733 mmHg 77%
    18:00 +4°C° 0 mm 6 m/s 734 mmHg 78%
    19:00 +4°C° 0 mm 6 m/s 734 mmHg 80%
    20:00 +5°C° 0.1 mm 5 m/s 735 mmHg 80%
    21:00 +3°C° 0.1 mm 5 m/s 735 mmHg 81%
    22:00 +4°C° 0.1 mm 4 m/s 736 mmHg 82%
    23:00 +4°C° 0 mm 4 m/s 736 mmHg 82%

    Poimâine, 16 Decembrie, Luni

    Timp Temperatura Precipitaţii Vânt Presiune Umiditate
    00:00 +4°C° 0 mm 4 m/s 737 mmHg 83%
    01:00 +4°C° 0 mm 4 m/s 737 mmHg 84%
    02:00 +4°C° 0 mm 4 m/s 737 mmHg 84%
    03:00 +4°C° 0 mm 3 m/s 737 mmHg 84%
    04:00 +4°C° 0 mm 3 m/s 737 mmHg 84%
    05:00 +4°C° 0 mm 3 m/s 737 mmHg 83%
    06:00 +4°C° 0 mm 3 m/s 737 mmHg 82%
    07:00 +4°C° 0 mm 3 m/s 737 mmHg 81%
    08:00 +5°C° 0 mm 3 m/s 737 mmHg 79%
    09:00 +5°C° 0 mm 3 m/s 738 mmHg 78%
    10:00 +7°C° 0 mm 3 m/s 738 mmHg 77%
    11:00 +7°C° 0 mm 3 m/s 737 mmHg 77%
    12:00 +7°C° 0 mm 4 m/s 737 mmHg 77%
    13:00 +8°C° 0 mm 4 m/s 737 mmHg 77%
    14:00 +7°C° 0 mm 4 m/s 737 mmHg 80%
    15:00 +6°C° 0 mm 4 m/s 736 mmHg 83%
    16:00 +6°C° 0 mm 4 m/s 736 mmHg 86%
    17:00 +6°C° 0 mm 4 m/s 736 mmHg 86%
    18:00 +6°C° 0 mm 4 m/s 736 mmHg 87%
    19:00 +6°C° 0 mm 4 m/s 736 mmHg 88%
    20:00 +6°C° 0 mm 4 m/s 736 mmHg 88%
    21:00 +6°C° 0 mm 4 m/s 735 mmHg 88%
    22:00 +6°C° 0 mm 4 m/s 735 mmHg 88%
    23:00 +6°C° 0 mm 4 m/s 735 mmHg 88%

    17 Decembrie, Marţi

    Timp Temperatura Precipitaţii Vânt Presiune Umiditate
    00:00 +6°C° 0 mm 4 m/s 735 mmHg 87%
    01:00 +6°C° 0 mm 5 m/s 734 mmHg 86%
    02:00 +6°C° 0 mm 4 m/s 734 mmHg 87%
    03:00 +6°C° 0 mm 4 m/s 734 mmHg 87%
    04:00 +6°C° 0 mm 4 m/s 734 mmHg 88%
    05:00 +6°C° 0 mm 4 m/s 734 mmHg 88%
    06:00 +7°C° 0 mm 3 m/s 733 mmHg 89%
    07:00 +5°C° 0 mm 3 m/s 733 mmHg 89%
    08:00 +7°C° 0 mm 3 m/s 733 mmHg 88%
    09:00 +7°C° 0 mm 4 m/s 734 mmHg 86%
    10:00 +7°C° 0 mm 4 m/s 734 mmHg 84%
    11:00 +8°C° 0 mm 4 m/s 734 mmHg 83%
    12:00 +8°C° 0 mm 4 m/s 734 mmHg 81%
    13:00 +10°C° 0 mm 4 m/s 733 mmHg 80%
    14:00 +8°C° 0 mm 4 m/s 734 mmHg 82%
    15:00 +9°C° 0 mm 3 m/s 734 mmHg 85%
    16:00 +8°C° 0 mm 2 m/s 734 mmHg 88%
    17:00 +8°C° 0 mm 2 m/s 734 mmHg 88%
    18:00 +8°C° 0 mm 2 m/s 734 mmHg 87%
    19:00 +8°C° 0 mm 3 m/s 734 mmHg 87%
    20:00 +8°C° 0 mm 3 m/s 735 mmHg 87%
    21:00 +8°C° 0 mm 3 m/s 735 mmHg 88%
    22:00 +8°C° 0 mm 3 m/s 735 mmHg 88%
    23:00 +8°C° 0 mm 3 m/s 735 mmHg 89%

    18 Decembrie, Miercuri

    Timp Temperatura Precipitaţii Vânt Presiune Umiditate
    00:00 +8°C° 0 mm 3 m/s 735 mmHg 89%
    01:00 +8°C° 0 mm 3 m/s 735 mmHg 89%
    02:00 +8°C° 0 mm 3 m/s 735 mmHg 89%
    03:00 +7°C° 0 mm 3 m/s 735 mmHg 89%
    04:00 +7°C° 0 mm 3 m/s 735 mmHg 89%
    05:00 +7°C° 0 mm 3 m/s 735 mmHg 89%
    06:00 +7°C° 0 mm 3 m/s 735 mmHg 89%
    07:00 +7°C° 0 mm 3 m/s 735 mmHg 89%
    08:00 +8°C° 0 mm 3 m/s 736 mmHg 87%
    09:00 +8°C° 0 mm 3 m/s 736 mmHg 85%
    10:00 +8°C° 0 mm 4 m/s 737 mmHg 83%
    11:00 +8°C° 0 mm 4 m/s 736 mmHg 82%
    12:00 +10°C° 0 mm 4 m/s 736 mmHg 80%
    13:00 +10°C° 0 mm 4 m/s 736 mmHg 78%
    14:00 +10°C° 0 mm 3 m/s 736 mmHg 81%
    15:00 +9°C° 0 mm 3 m/s 736 mmHg 84%
    16:00 +8°C° 0 mm 3 m/s 737 mmHg 87%
    17:00 +8°C° 0 mm 2 m/s 737 mmHg 88%
    18:00 +8°C° 0 mm 2 m/s 737 mmHg 89%
    19:00 +9°C° 0 mm 1 m/s 737 mmHg 90%
    20:00 +9°C° 0 mm 1 m/s 737 mmHg 90%
    21:00 +9°C° 0 mm 1 m/s 737 mmHg 91%
    22:00 +9°C° 0 mm 1 m/s 737 mmHg 91%
    23:00 +8°C° 0 mm 1 m/s 737 mmHg 91%

    19 Decembrie, Joi

    Timp Temperatura Precipitaţii Vânt Presiune Umiditate
    00:00 +8°C° 0 mm 1 m/s 737 mmHg 92%
    01:00 +8°C° 0 mm 1 m/s 736 mmHg 92%
    02:00 +8°C° 0 mm 1 m/s 736 mmHg 92%
    03:00 +8°C° 0 mm 1 m/s 736 mmHg 92%
    04:00 +8°C° 0 mm 1 m/s 736 mmHg 92%
    05:00 +8°C° 0 mm 1 m/s 736 mmHg 93%
    06:00 +8°C° 0 mm 1 m/s 736 mmHg 93%
    07:00 +7°C° 0 mm 0 m/s 736 mmHg 93%
    08:00 +8°C° 0 mm 1 m/s 736 mmHg 92%
    09:00 +8°C° 0 mm 1 m/s 736 mmHg 90%
    10:00 +9°C° 0 mm 1 m/s 736 mmHg 89%
    11:00 +9°C° 0 mm 1 m/s 735 mmHg 86%
    12:00 +9°C° 0 mm 2 m/s 735 mmHg 83%
    13:00 +9°C° 0 mm 2 m/s 735 mmHg 81%
    14:00 +9°C° 0 mm 2 m/s 734 mmHg 82%
    15:00 +9°C° 0 mm 2 m/s 734 mmHg 83%
    16:00 +8°C° 0 mm 2 m/s 734 mmHg 85%
    17:00 +8°C° 0 mm 2 m/s 734 mmHg 86%
    18:00 +8°C° 0 mm 2 m/s 734 mmHg 87%
    19:00 +8°C° 0 mm 2 m/s 733 mmHg 88%
    20:00 +8°C° 0.1 mm 2 m/s 733 mmHg 88%
    21:00 +8°C° 0.1 mm 2 m/s 733 mmHg 88%
    22:00 +8°C° 0.1 mm 2 m/s 733 mmHg 88%
    23:00 +8°C° 0 mm 2 m/s 732 mmHg 88%
    Arată mai mult